Wind_Speed
5 6 6 6 7 8 6 3 5 8 8 7 7 6 6 7 8 8 9 10 10 10 8 8 8 8 7 6 5 5 4 4 4 4 4 3 3 3 3 4 3 3 3 3 3 3 3 4 4
4 5 5 5 5 5 3 3 6 8 8 8 8 8 8 9 9 8 9 9 9 9 9 8 8 8 7 7 6 6 5 5 4 4 4 4 4 4 4 4 3 3 3 3 3 4 4 4 4
4 4 4 4 4 4 2 5 8 9 9 9 8 9 9 10 10 9 9 9 9 9 9 9 8 8 8 7 7 7 6 5 4 4 4 4 4 4 4 4 4 5 4 4 4 4 4 4 5
4 4 3 1 2 3 3 7 9 9 9 9 9 10 10 10 10 10 9 9 9 9 10 10 9 9 8 8 7 7 6 6 5 5 5 5 4 4 4 4 5 5 5 5 4 5 4 5 5
5 3 1 1 2 3 5 8 9 9 10 8 9 11 11 11 11 10 10 10 9 9 10 11 10 8 8 8 7 7 6 6 6 5 5 5 5 5 5 5 5 5 6 6 5 5 4 5 6
5 3 2 3 2 6 8 10 9 8 10 10 9 11 11 10 11 10 10 10 10 10 10 10 10 9 8 8 7 6 6 6 6 6 5 5 5 5 6 6 6 6 6 6 6 5 4 4 5
5 4 4 5 4 6 10 11 9 8 9 10 11 12 11 10 10 10 10 10 10 10 10 10 10 10 9 8 8 7 6 6 6 6 5 5 6 6 6 5 5 6 6 7 7 6 5 4 5
6 5 4 4 5 7 12 12 10 9 8 9 11 11 10 9 10 11 11 11 10 10 10 10 10 10 10 9 8 7 6 6 6 6 6 5 6 7 6 5 6 6 7 7 7 6 5 4 4
6 6 4 3 7 8 12 12 10 10 10 10 11 12 10 9 10 11 11 12 11 10 10 10 10 10 10 10 9 8 7 7 6 7 6 7 7 7 7 7 7 7 7 7 7 6 5 4 3
7 7 5 6 10 10 13 12 10 10 11 11 12 12 10 10 11 12 12 12 11 11 11 11 11 11 10 10 10 9 8 7 7 7 7 7 7 7 8 7 7 7 6 6 6 6 5 4 4
9 8 8 10 13 13 12 11 11 11 11 12 12 12 12 12 12 12 12 12 12 12 12 13 12 12 11 11 11 10 9 8 8 8 8 8 8 8 8 7 6 5 4 4 4 5 5 4 4
11 11 11 12 14 12 12 11 11 10 12 12 12 13 13 13 12 12 12 12 13 13 13 13 13 13 12 12 11 11 10 9 9 9 9 9 9 8 7 6 4 3 2 2 3 4 4 4 4
12 12 14 15 14 13 13 11 10 11 12 13 14 13 13 13 12 12 13 12 13 15 15 14 14 14 13 13 13 12 11 11 10 10 10 9 9 8 7 6 5 3 2 2 3 3 3 4 5
13 13 13 14 13 13 13 11 10 11 12 14 15 14 13 13 14 14 14 13 14 16 16 15 14 14 14 14 14 13 12 12 11 11 11 11 10 9 7 6 6 4 3 3 3 4 4 4 4
12 13 12 12 12 13 12 12 11 12 13 14 15 15 12 14 15 15 15 15 15 16 16 15 15 14 14 14 13 13 13 12 12 12 12 11 10 9 7 7 6 6 5 4 4 4 4 4 4
12 11 11 12 12 13 13 13 13 14 13 14 16 15 14 15 15 15 15 16 16 16 17 16 15 15 14 14 14 14 13 13 13 13 13 11 10 10 8 7 7 6 6 5 5 5 5 5 5
11 10 11 12 12 12 13 13 14 15 14 16 16 16 16 16 16 16 15 15 16 16 17 16 16 15 14 15 15 14 14 14 13 13 12 11 11 10 9 7 7 7 7 7 7 7 6 6 7
10 10 11 12 13 13 14 14 15 15 15 16 17 17 17 16 16 17 16 16 16 17 17 16 16 15 15 15 15 14 14 14 13 13 12 12 11 10 9 8 8 8 8 8 8 8 8 7 7
11 10 12 14 15 16 16 15 15 16 17 17 18 19 19 18 18 17 17 17 17 17 17 17 16 16 16 16 16 15 14 14 15 14 13 13 12 12 11 10 9 9 8 8 8 8 8 8 8
13 13 14 16 17 18 18 17 17 17 18 18 19 18 19 18 19 18 18 18 18 18 18 17 17 17 17 17 17 16 15 15 15 14 14 14 13 13 12 12 11 10 9 9 9 9 9 9 9
14 14 14 16 18 19 18 18 18 17 18 18 20 19 21 20 20 20 19 19 18 18 18 18 18 18 19 19 18 17 17 17 16 15 15 15 14 14 13 13 13 12 11 11 10 11 10 9 10
15 16 16 16 18 18 18 18 16 17 18 19 20 20 21 20 20 20 19 20 19 18 19 18 18 19 19 19 19 18 18 17 16 16 16 16 15 15 15 14 13 13 12 12 11 12 11 11 11
15 16 16 15 17 18 17 17 18 19 20 19 19 21 21 21 22 21 18 19 19 19 20 20 19 19 19 19 18 18 17 17 16 17 16 16 16 16 15 15 14 13 13 13 13 13 13 13 12
16 15 14 14 15 18 16 18 19 20 21 18 19 20 21 21 21 20 19 19 20 20 20 20 19 19 19 18 17 17 17 17 17 17 17 17 16 16 15 15 15 14 14 14 14 14 14 14 14
15 14 13 14 15 16 15 17 19 20 20 18 19 21 22 22 22 21 20 20 20 21 21 20 19 19 20 19 18 17 17 18 18 17 17 16 16 16 15 15 15 15 14 14 15 15 15 15 15
14 15 15 15 15 15 13 17 20 20 20 20 20 20 22 22 22 21 21 22 21 21 21 21 20 19 19 18 19 18 18 19 19 19 18 17 17 17 16 16 16 16 15 16 16 16 15 16 16
14 16 16 17 16 17 16 20 22 21 21 22 21 20 22 23 23 22 22 22 22 22 22 21 20 20 19 19 19 19 19 19 19 19 18 18 18 18 17 17 17 17 17 17 16 17 17 17 17
16 16 16 18 18 17 17 18 21 20 22 22 23 21 21 21 22 22 22 22 22 22 22 21 21 21 20 20 19 19 19 20 20 20 20 19 19 18 18 18 18 18 18 17 17 17 18 18 17
15 16 17 18 18 17 18 19 20 21 23 22 22 21 21 22 23 23 22 23 23 23 22 22 22 21 21 21 21 21 21 21 21 21 20 20 20 20 20 19 19 20 20 20 19 18 18 18 18
16 17 17 19 19 19 19 20 21 22 22 22 22 21 22 23 23 23 23 23 23 23 23 22 21 21 22 22 22 22 22 22 22 21 21 21 21 21 21 21 21 21 21 21 20 20 19 19 19
Wind_Direction
84 81 83 77 78 79 61 1 324 320 335 340 340 338 338 333 333 334 336 342 346 347 349 351 349 349 346 339 329 322 318 307 298 293 294 294 289 285 286 273 267 252 238 233 242 257 265 261 248
100 98 90 76 51 62 64 327 310 324 331 337 343 342 340 336 336 334 335 342 346 346 346 347 348 349 347 341 333 323 312 302 296 294 296 296 289 284 287 283 279 264 245 238 247 259 261 262 255
120 114 97 82 14 25 28 316 313 324 331 336 339 340 338 339 337 336 336 340 343 345 345 347 348 351 350 345 338 329 322 310 299 295 299 298 293 287 286 292 282 275 262 242 246 252 252 255 249
142 131 113 74 26 352 313 309 318 325 326 331 330 333 335 338 338 336 333 337 341 344 345 348 345 350 349 346 341 330 324 318 307 302 300 300 299 295 292 288 282 281 267 266 259 255 255 255 247
150 138 137 286 321 293 286 300 311 318 322 328 323 329 331 336 337 335 334 338 342 341 343 345 346 348 348 346 343 336 326 318 310 304 302 300 304 303 300 291 285 278 273 271 270 261 261 259 253
156 157 234 271 301 286 288 299 306 314 318 319 319 323 328 330 332 336 338 341 343 340 339 342 344 344 343 342 342 338 324 316 313 312 307 303 307 308 304 298 289 280 275 273 270 272 267 258 256
175 181 241 264 274 281 284 291 297 308 309 311 312 317 320 323 328 334 338 339 341 341 336 338 339 339 337 338 338 336 327 319 316 314 308 304 310 311 308 298 287 278 275 272 270 273 269 262 261
192 198 224 240 270 269 273 283 289 297 297 293 301 305 310 325 326 330 333 334 338 338 333 332 334 334 332 333 332 328 322 320 319 319 312 309 313 316 309 300 292 283 276 271 268 268 272 261 263
213 208 220 228 261 259 269 281 287 291 287 288 295 299 307 321 323 324 324 326 329 331 331 327 327 328 329 327 325 323 322 319 316 317 315 313 318 319 309 298 294 292 284 272 259 256 263 255 259
234 220 207 236 252 249 262 276 282 289 291 291 295 302 311 313 318 320 322 323 324 325 325 326 325 323 325 325 321 318 318 314 312 316 320 319 321 316 312 301 298 298 292 276 256 241 235 245 256
235 232 218 232 246 250 259 269 277 286 293 292 289 296 308 311 313 315 316 318 319 322 323 324 327 322 321 321 318 313 314 311 308 313 315 315 318 318 317 309 304 303 294 278 243 222 230 237 246
239 235 234 247 253 256 260 265 276 279 280 284 287 292 303 301 303 306 308 310 314 319 321 321 322 321 319 317 313 310 311 311 309 310 314 310 314 314 317 309 303 297 273 255 219 217 231 238 237
238 244 245 252 257 261 262 266 269 274 276 284 289 293 296 295 299 303 305 306 310 316 317 317 318 316 316 315 311 307 310 307 305 311 314 310 308 305 309 306 302 308 299 267 237 231 241 235 238
236 244 251 255 259 263 268 270 273 276 276 280 288 290 291 295 302 303 304 305 309 312 314 315 314 315 315 310 307 306 307 305 303 308 312 312 308 298 299 301 295 298 299 284 271 259 252 246 238
240 247 251 258 262 267 268 270 272 274 278 283 290 293 293 293 297 299 302 306 308 310 313 313 311 312 312 308 305 304 301 303 303 306 308 311 308 300 287 292 293 296 295 279 271 271 264 257 256
238 248 253 261 258 261 267 271 274 274 275 283 289 292 296 294 295 298 301 304 306 308 313 314 311 311 307 304 304 302 298 299 299 303 306 304 306 301 286 286 285 285 291 287 276 277 272 267 266
240 252 259 260 264 266 268 268 271 272 277 279 285 286 294 292 291 295 299 302 304 306 310 313 311 309 306 303 303 302 295 295 298 300 303 301 303 298 290 280 279 280 285 287 284 279 276 271 268
240 256 259 258 265 268 267 265 267 269 276 280 286 287 293 294 292 291 294 298 299 302 306 310 310 306 302 302 302 301 293 291 291 293 296 298 299 294 290 279 280 281 284 286 284 281 276 270 265
234 239 250 257 261 263 265 266 267 273 276 279 283 286 290 291 289 289 291 293 295 297 301 304 306 304 299 299 299 298 293 288 288 290 291 291 292 291 286 278 277 279 282 281 279 283 280 272 264
235 238 247 255 260 261 263 266 262 270 278 281 282 281 279 282 288 288 289 291 293 294 296 298 301 302 299 296 294 291 289 289 287 287 289 290 289 289 285 280 276 274 276 276 275 278 277 269 263
241 241 246 252 260 265 268 266 263 272 276 279 280 281 282 280 283 285 286 287 289 291 293 293 296 299 298 295 289 287 286 285 283 282 283 284 283 284 284 280 277 275 273 273 274 272 272 268 267
247 246 247 250 255 262 269 273 272 276 275 278 279 279 279 277 279 283 286 288 289 290 293 293 294 296 295 295 289 286 284 285 284 283 282 281 280 281 279 277 275 273 272 273 272 269 268 271 271
242 248 253 257 260 261 262 269 272 275 274 278 279 281 280 280 281 283 287 289 290 290 289 289 289 292 293 294 290 285 284 285 284 283 281 280 279 278 277 274 272 271 270 271 272 268 268 270 273
246 253 261 264 262 260 260 262 270 277 279 277 275 277 279 277 282 285 288 290 291 290 288 286 287 288 289 291 290 287 286 285 283 282 281 280 278 275 276 274 270 270 270 269 270 270 270 270 270
247 250 256 261 264 264 265 267 269 275 279 277 276 277 279 281 285 286 287 287 289 292 290 286 286 287 287 289 290 290 288 285 284 281 281 279 278 275 273 271 269 269 270 267 269 272 273 271 269
250 251 255 262 265 267 263 264 268 269 277 277 277 278 282 286 290 291 289 288 288 290 289 286 283 284 287 289 288 289 288 288 285 281 279 276 275 275 274 271 268 267 268 267 267 270 272 270 270
252 254 257 263 265 272 269 264 267 272 274 277 280 279 281 286 288 289 289 289 288 289 287 286 285 285 286 288 289 288 287 287 286 284 280 276 276 274 272 272 270 267 266 267 269 272 271 270 269
251 257 255 254 260 266 266 270 271 273 276 279 282 285 285 286 286 285 286 289 287 286 285 284 284 284 284 286 287 287 287 286 284 284 282 277 273 272 272 273 272 269 269 269 270 273 271 268 269
252 250 254 255 256 261 264 267 272 274 277 281 283 285 284 284 284 284 285 286 285 284 283 282 281 281 281 284 286 286 285 287 285 283 281 278 274 272 271 271 270 271 271 270 270 268 268 268 268
251 255 256 259 261 260 264 269 270 274 277 281 281 282 283 284 284 284 286 286 284 283 283 282 282 280 280 282 285 286 286 285 283 281 280 278 274 272 271 270 271 272 273 269 269 268 265 267 267
Height
5902 5902 5902 5903 5902 5902 5903 5905 5904 5901 5900 5899 5898 5897 5896 5895 5894 5895 5891 5888 5887 5885 5884 5883 5882 5880 5879 5878 5877 5876 5875 5874 5873 5873 5872 5871 5871 5871 5870 5869 5869 5869 5869 5869 5869 5869 5869 5869 5869
5902 5903 5903 5903 5902 5901 5904 5905 5903 5901 5900 5899 5897 5896 5895 5894 5893 5892 5890 5888 5887 5885 5884 5883 5881 5880 5879 5878 5877 5876 5875 5874 5873 5872 5872 5871 5870 5870 5869 5869 5869 5869 5868 5868 5868 5868 5868 5869 5869
5902 5902 5903 5903 5902 5903 5904 5904 5903 5902 5900 5899 5898 5897 5895 5894 5893 5891 5890 5888 5887 5885 5884 5883 5881 5880 5879 5878 5877 5875 5875 5874 5873 5872 5871 5870 5870 5869 5869 5868 5868 5868 5868 5868 5867 5867 5868 5868 5868
5901 5902 5903 5904 5904 5905 5906 5904 5903 5902 5900 5898 5897 5896 5895 5894 5892 5891 5889 5887 5886 5885 5884 5883 5881 5880 5878 5877 5876 5875 5874 5873 5872 5872 5871 5870 5869 5868 5868 5868 5868 5867 5867 5867 5867 5867 5867 5867 5868
5901 5902 5903 5903 5905 5906 5905 5904 5903 5902 5900 5898 5897 5895 5894 5893 5891 5890 5888 5887 5886 5885 5883 5882 5881 5879 5878 5877 5876 5875 5874 5873 5872 5871 5870 5869 5869 5868 5867 5867 5866 5866 5866 5866 5866 5865 5866 5866 5867
5901 5902 5903 5902 5904 5906 5905 5904 5903 5902 5900 5898 5896 5895 5894 5892 5891 5889 5888 5887 5886 5885 5883 5882 5880 5879 5878 5877 5875 5874 5873 5873 5872 5871 5870 5869 5868 5867 5866 5866 5865 5865 5865 5865 5865 5864 5864 5865 5865
5900 5901 5902 5903 5905 5906 5905 5903 5903 5901 5900 5898 5896 5894 5893 5891 5890 5889 5887 5886 5885 5884 5882 5881 5880 5879 5877 5876 5875 5874 5873 5872 5871 5870 5870 5869 5868 5867 5866 5865 5864 5863 5863 5863 5863 5863 5863 5864 5864
5899 5901 5902 5903 5905 5906 5904 5902 5901 5900 5899 5898 5896 5892 5891 5890 5890 5888 5887 5886 5885 5883 5882 5881 5879 5878 5877 5876 5874 5873 5872 5872 5871 5870 5869 5868 5867 5866 5865 5864 5863 5862 5861 5861 5861 5862 5862 5863 5863
5898 5900 5902 5902 5905 5904 5902 5901 5900 5899 5898 5896 5894 5892 5890 5889 5889 5888 5887 5885 5884 5883 5881 5880 5879 5878 5877 5875 5874 5873 5872 5871 5870 5869 5868 5867 5866 5865 5864 5862 5861 5860 5858 5857 5858 5860 5861 5861 5862
5897 5898 5900 5902 5902 5902 5900 5900 5899 5898 5896 5894 5892 5889 5889 5888 5888 5887 5886 5884 5883 5882 5881 5879 5878 5877 5876 5875 5873 5872 5871 5870 5869 5869 5868 5866 5865 5864 5862 5860 5859 5857 5855 5854 5855 5858 5860 5861 5861
5896 5897 5897 5898 5899 5899 5898 5898 5897 5896 5895 5893 5890 5889 5888 5888 5887 5886 5885 5884 5882 5881 5880 5878 5877 5876 5875 5874 5873 5872 5871 5870 5869 5867 5866 5865 5864 5862 5861 5859 5857 5855 5854 5853 5854 5857 5859 5860 5860
5894 5894 5895 5895 5896 5896 5896 5895 5895 5894 5893 5891 5889 5888 5887 5887 5886 5884 5883 5883 5881 5880 5879 5878 5876 5875 5874 5873 5872 5871 5870 5869 5868 5867 5866 5864 5863 5862 5860 5858 5857 5856 5855 5854 5855 5857 5859 5859 5860
5891 5892 5893 5893 5893 5894 5893 5893 5893 5893 5891 5889 5888 5886 5886 5884 5884 5883 5882 5881 5880 5879 5878 5877 5875 5874 5873 5872 5871 5870 5869 5868 5867 5866 5865 5863 5862 5861 5860 5859 5858 5857 5857 5857 5857 5858 5859 5860 5860
5888 5889 5890 5890 5891 5891 5891 5891 5890 5891 5890 5888 5886 5885 5884 5883 5881 5881 5880 5879 5878 5878 5876 5875 5874 5872 5871 5870 5869 5868 5867 5866 5866 5865 5864 5862 5861 5860 5860 5859 5858 5858 5858 5858 5858 5858 5858 5859 5860
5885 5887 5887 5888 5889 5889 5889 5889 5889 5888 5887 5886 5885 5882 5881 5881 5879 5879 5878 5877 5877 5876 5874 5873 5872 5871 5869 5868 5867 5866 5865 5864 5864 5864 5863 5861 5860 5859 5859 5859 5858 5858 5858 5858 5858 5858 5859 5859 5860
5883 5884 5885 5887 5887 5887 5888 5887 5886 5885 5885 5884 5883 5881 5880 5879 5877 5877 5876 5876 5875 5874 5872 5871 5870 5868 5867 5866 5865 5865 5864 5863 5863 5862 5861 5860 5859 5858 5858 5858 5858 5858 5858 5858 5858 5858 5859 5859 5860
5881 5882 5884 5885 5884 5884 5885 5884 5884 5883 5882 5881 5880 5879 5878 5876 5875 5875 5874 5873 5873 5872 5870 5869 5868 5867 5865 5864 5863 5862 5862 5861 5861 5860 5860 5859 5858 5857 5857 5857 5857 5857 5857 5857 5857 5857 5858 5858 5859
5879 5881 5882 5883 5882 5882 5882 5882 5881 5879 5879 5879 5877 5876 5875 5873 5872 5872 5871 5871 5870 5869 5868 5867 5866 5864 5863 5862 5861 5860 5859 5859 5859 5858 5858 5857 5856 5856 5856 5855 5855 5856 5856 5856 5856 5856 5857 5857 5857
5876 5878 5881 5881 5879 5879 5879 5879 5879 5877 5877 5875 5875 5873 5872 5871 5869 5869 5868 5868 5867 5866 5865 5864 5863 5862 5861 5860 5858 5858 5857 5857 5856 5856 5856 5855 5854 5854 5854 5854 5854 5854 5855 5855 5855 5855 5855 5855 5856
5873 5875 5877 5878 5876 5876 5875 5875 5874 5874 5873 5872 5871 5869 5868 5866 5866 5865 5865 5864 5864 5863 5862 5861 5860 5859 5858 5857 5856 5855 5855 5854 5854 5853 5853 5852 5852 5852 5852 5852 5852 5853 5853 5853 5853 5854 5854 5854 5854
5870 5872 5873 5874 5873 5872 5872 5871 5870 5870 5870 5869 5868 5867 5865 5863 5863 5862 5862 5861 5860 5859 5859 5858 5857 5855 5854 5853 5852 5852 5851 5851 5851 5850 5850 5850 5849 5849 5849 5849 5850 5850 5851 5851 5851 5852 5852 5852 5853
5867 5868 5868 5869 5869 5869 5868 5866 5866 5866 5865 5865 5864 5864 5862 5860 5859 5859 5858 5857 5857 5856 5855 5854 5853 5852 5850 5849 5848 5848 5847 5847 5847 5847 5846 5846 5846 5846 5846 5847 5847 5847 5848 5848 5848 5849 5850 5850 5851
5862 5863 5863 5864 5864 5865 5865 5864 5865 5862 5861 5860 5860 5859 5858 5857 5856 5855 5854 5854 5852 5852 5851 5850 5849 5848 5847 5845 5844 5844 5843 5843 5843 5843 5843 5843 5843 5843 5843 5844 5844 5844 5845 5845 5846 5846 5847 5847 5848
5858 5859 5860 5860 5860 5860 5861 5861 5860 5857 5856 5856 5855 5854 5853 5852 5852 5850 5850 5850 5848 5848 5847 5846 5845 5844 5843 5841 5840 5840 5839 5839 5839 5839 5839 5839 5839 5839 5840 5840 5840 5841 5842 5842 5843 5843 5844 5844 5845
5855 5856 5857 5857 5857 5857 5858 5857 5856 5854 5853 5853 5852 5851 5849 5848 5847 5847 5846 5845 5844 5843 5841 5840 5840 5839 5839 5838 5837 5836 5836 5835 5834 5834 5834 5834 5835 5835 5835 5836 5837 5837 5838 5839 5839 5840 5840 5841 5841
5851 5852 5853 5854 5854 5853 5853 5853 5852 5850 5849 5849 5847 5846 5845 5844 5843 5842 5841 5840 5839 5838 5837 5836 5836 5835 5835 5834 5833 5832 5832 5831 5830 5830 5830 5830 5831 5831 5831 5832 5833 5833 5834 5835 5835 5836 5836 5837 5838
5847 5848 5850 5850 5849 5850 5849 5848 5846 5846 5845 5844 5842 5842 5842 5840 5839 5837 5837 5836 5835 5834 5833 5832 5831 5831 5830 5830 5829 5828 5827 5826 5826 5825 5825 5826 5826 5827 5827 5828 5829 5829 5830 5830 5831 5831 5832 5834 5834
5844 5845 5845 5845 5845 5845 5845 5843 5841 5841 5840 5840 5838 5837 5837 5835 5833 5833 5832 5831 5830 5829 5828 5827 5827 5826 5826 5825 5825 5824 5823 5822 5822 5821 5821 5821 5822 5822 5823 5823 5824 5825 5825 5826 5826 5827 5828 5829 5830
5840 5841 5840 5840 5841 5841 5840 5841 5838 5837 5836 5835 5835 5834 5833 5831 5829 5829 5828 5826 5825 5824 5823 5822 5821 5821 5821 5821 5820 5819 5819 5818 5817 5817 5816 5817 5817 5817 5818 5818 5819 5820 5820 5820 5821 5822 5823 5824 5825
5836 5836 5836 5836 5835 5836 5835 5837 5833 5831 5830 5830 5829 5828 5827 5826 5825 5824 5823 5821 5820 5819 5818 5817 5816 5816 5816 5815 5815 5814 5814 5813 5812 5812 5812 5812 5812 5812 5812 5813 5814 5814 5815 5815 5816 5817 5818 5819 5820